Meteor 2-9 Rocket - Orbit

View from above orbital plane
View from above orbital plane
View from above satellite
View from above satellite

Ground track
Ground track

The orbit data is extracted from the following two-line orbital elements,

1 13719U 82116B   13143.78802440  .00000129  00000-0  59889-4 0  1564
2 13719 081.2550 015.2915 0070788 269.2737 134.7925 14.14388266570368
Epoch (UTC): 23 May 2013 18:54:45
Eccentricity: 0.0070788
inclination: 81.2550°
perigee height: 793 km
apogee height: 895 km
right ascension of ascending node: 15.2915°
argument of perigee: 269.2737°
revolutions per day: 14.14388266
mean anomaly at epoch: 134.7925°
orbit number at epoch: 57036

The dashed part of the orbit path shows where the satellite is in the earth's shadow,  

Developed and maintained by Chris Peat, Heavens-Above GmbH. Please read the updated FAQ before sending e-mail. Imprint. DLR